TimeEST,TemperatureF,Dew PointF,Humidity,Sea Level PressureIn,VisibilityMPH,Wind Direction,Wind SpeedMPH,Gust SpeedMPH,PrecipitationIn,Events,Conditions,WindDirDegrees,DateUTC
12:15 AM,68.0,66.2,94,30.03,10.0,South,9.2,-,N/A,,Mostly Cloudy,190,2014-02-03 05:15:00
12:35 AM,68.0,66.2,94,30.02,10.0,SSW,6.9,-,N/A,,Scattered Clouds,200,2014-02-03 05:35:00
12:55 AM,68.0,66.2,94,30.02,10.0,SSW,6.9,-,N/A,,Mostly Cloudy,200,2014-02-03 05:55:00
1:15 AM,68.0,66.2,94,30.02,10.0,SSW,6.9,-,N/A,,Overcast,200,2014-02-03 06:15:00
1:35 AM,68.0,64.4,88,30.01,10.0,South,4.6,-,N/A,,Mostly Cloudy,190,2014-02-03 06:35:00
1:55 AM,68.0,64.4,88,30.01,10.0,South,5.8,-,N/A,,Scattered Clouds,190,2014-02-03 06:55:00
2:15 AM,68.0,64.4,88,30.02,10.0,SSW,8.1,-,N/A,,Scattered Clouds,200,2014-02-03 07:15:00
2:35 AM,68.0,64.4,88,30.02,10.0,SSW,6.9,-,N/A,,Clear,210,2014-02-03 07:35:00
2:55 AM,66.2,64.4,94,30.02,10.0,SSW,4.6,-,N/A,,Scattered Clouds,210,2014-02-03 07:55:00
3:15 AM,66.2,64.4,94,30.01,10.0,SSW,6.9,-,N/A,,Mostly Cloudy,200,2014-02-03 08:15:00
3:35 AM,66.2,64.4,94,30.02,10.0,SW,5.8,-,N/A,,Mostly Cloudy,230,2014-02-03 08:35:00
3:55 AM,66.2,64.4,94,30.01,10.0,SW,4.6,-,N/A,,Overcast,220,2014-02-03 08:55:00
4:15 AM,66.2,64.4,94,30.02,10.0,SW,5.8,-,N/A,,Overcast,230,2014-02-03 09:15:00
4:35 AM,66.2,64.4,94,30.02,10.0,SSW,5.8,-,N/A,,Overcast,200,2014-02-03 09:35:00
4:55 AM,66.2,64.4,94,30.03,10.0,South,5.8,-,N/A,,Overcast,190,2014-02-03 09:55:00
5:15 AM,64.4,62.6,94,30.02,10.0,South,6.9,-,N/A,,Overcast,170,2014-02-03 10:15:00
5:35 AM,64.4,62.6,94,30.01,10.0,South,6.9,-,N/A,,Overcast,180,2014-02-03 10:35:00
5:55 AM,64.4,62.6,94,30.01,10.0,South,9.2,-,N/A,,Overcast,190,2014-02-03 10:55:00
6:15 AM,64.4,62.6,94,30.02,10.0,SSW,6.9,-,N/A,,Overcast,210,2014-02-03 11:15:00
6:35 AM,64.4,62.6,94,30.03,10.0,SSW,5.8,-,N/A,,Overcast,200,2014-02-03 11:35:00
6:55 AM,64.4,62.6,94,30.03,10.0,South,6.9,-,N/A,,Overcast,180,2014-02-03 11:55:00
7:15 AM,64.4,62.6,94,30.03,10.0,South,11.5,-,N/A,,Overcast,190,2014-02-03 12:15:00
7:35 AM,64.4,62.6,94,30.04,10.0,SSW,6.9,-,N/A,,Overcast,210,2014-02-03 12:35:00
7:55 AM,64.4,62.6,94,30.04,10.0,SSW,8.1,-,N/A,,Overcast,200,2014-02-03 12:55:00
8:15 AM,66.2,64.4,94,30.05,10.0,SSW,9.2,-,N/A,,Overcast,200,2014-02-03 13:15:00
8:35 AM,66.2,64.4,94,30.05,10.0,SSW,9.2,-,N/A,,Overcast,210,2014-02-03 13:35:00
8:55 AM,66.2,64.4,94,30.07,10.0,SW,5.8,-,N/A,,Overcast,230,2014-02-03 13:55:00
9:15 AM,68.0,64.4,88,30.07,10.0,SW,6.9,-,N/A,,Overcast,220,2014-02-03 14:15:00
9:35 AM,68.0,64.4,88,30.08,10.0,SSW,5.8,-,N/A,,Overcast,200,2014-02-03 14:35:00
9:55 AM,69.8,64.4,83,30.08,10.0,SSW,9.2,-,N/A,,Overcast,200,2014-02-03 14:55:00
10:15 AM,71.6,64.4,78,30.08,10.0,SSW,10.4,-,N/A,,Mostly Cloudy,210,2014-02-03 15:15:00
10:35 AM,73.4,66.2,78,30.08,10.0,SSW,11.5,-,N/A,,Scattered Clouds,210,2014-02-03 15:35:00
10:55 AM,73.4,66.2,78,30.08,10.0,SSW,9.2,-,N/A,,Scattered Clouds,200,2014-02-03 15:55:00
11:15 AM,73.4,66.2,78,30.08,10.0,SSW,6.9,-,N/A,,Mostly Cloudy,210,2014-02-03 16:15:00
11:35 AM,73.4,66.2,78,30.08,10.0,SW,5.8,-,N/A,,Mostly Cloudy,230,2014-02-03 16:35:00
11:55 AM,71.6,64.4,78,30.07,10.0,WSW,5.8,-,N/A,,Drizzle,250,2014-02-03 16:55:00
12:15 PM,68.0,64.4,88,30.07,5.0,West,4.6,-,N/A,Rain,Rain,270,2014-02-03 17:15:00
12:35 PM,68.0,66.2,94,30.07,3.0,WNW,3.5,-,N/A,Rain,Heavy Rain,290,2014-02-03 17:35:00
12:55 PM,68.0,66.2,94,30.06,5.0,West,3.5,-,N/A,,Mostly Cloudy,280,2014-02-03 17:55:00
1:15 PM,68.0,68.0,100,30.05,3.0,Calm,Calm,-,N/A,Rain,Light Rain,0,2014-02-03 18:15:00
1:35 PM,68.0,68.0,100,30.05,3.0,Calm,Calm,-,N/A,,Drizzle,0,2014-02-03 18:35:00
1:55 PM,68.0,68.0,100,30.04,2.0,Calm,Calm,-,N/A,,Light Drizzle,0,2014-02-03 18:55:00
2:15 PM,69.8,68.0,94,30.03,7.0,SSE,3.5,-,N/A,,Mostly Cloudy,160,2014-02-03 19:15:00
2:35 PM,71.6,69.8,94,30.03,10.0,Calm,Calm,-,N/A,,Overcast,0,2014-02-03 19:35:00
2:55 PM,71.6,69.8,94,30.03,10.0,Calm,Calm,-,N/A,,Overcast,0,2014-02-03 19:55:00
3:15 PM,71.6,69.8,94,30.03,7.0,Calm,Calm,-,N/A,,Overcast,0,2014-02-03 20:15:00
3:35 PM,71.6,69.8,94,30.02,10.0,Calm,Calm,-,N/A,,Overcast,0,2014-02-03 20:35:00
3:55 PM,71.6,69.8,94,30.02,10.0,SE,3.5,-,N/A,,Overcast,140,2014-02-03 20:55:00
4:15 PM,73.4,71.6,94,30.02,10.0,Calm,Calm,-,N/A,,Overcast,0,2014-02-03 21:15:00
4:35 PM,71.6,69.8,94,30.03,10.0,Calm,Calm,-,N/A,,Overcast,0,2014-02-03 21:35:00
4:55 PM,73.4,71.6,94,30.03,10.0,Calm,Calm,-,N/A,,Overcast,0,2014-02-03 21:55:00
5:15 PM,73.4,71.6,94,30.03,10.0,Calm,Calm,-,N/A,,Overcast,0,2014-02-03 22:15:00
5:35 PM,71.6,69.8,94,30.04,5.0,Calm,Calm,-,N/A,Rain,Heavy Rain,0,2014-02-03 22:35:00
5:55 PM,71.6,69.8,94,30.04,7.0,Calm,Calm,-,N/A,Rain,Light Rain,0,2014-02-03 22:55:00
6:15 PM,71.6,69.8,94,30.04,4.0,Calm,Calm,-,N/A,,Overcast,0,2014-02-03 23:15:00
6:35 PM,69.8,68.0,94,30.04,1.0,Calm,Calm,-,N/A,,Overcast,0,2014-02-03 23:35:00
6:55 PM,69.8,68.0,94,30.05,1.0,WNW,5.8,-,N/A,,Overcast,300,2014-02-03 23:55:00
7:15 PM,66.2,64.4,94,30.05,10.0,North,8.1,-,N/A,,Overcast,350,2014-02-04 00:15:00
7:35 PM,66.2,64.4,94,30.06,7.0,NNW,6.9,-,N/A,,Overcast,340,2014-02-04 00:35:00
7:55 PM,64.4,64.4,100,30.06,5.0,North,6.9,-,N/A,,Overcast,350,2014-02-04 00:55:00
8:15 PM,64.4,62.6,94,30.07,5.0,North,5.8,-,N/A,,Overcast,350,2014-02-04 01:15:00
8:35 PM,64.4,62.6,94,30.07,5.0,North,4.6,-,N/A,,Overcast,350,2014-02-04 01:35:00
8:55 PM,62.6,62.6,100,30.08,10.0,NNW,5.8,-,N/A,,Overcast,340,2014-02-04 01:55:00
9:15 PM,62.6,62.6,100,30.09,7.0,North,4.6,-,N/A,,Overcast,360,2014-02-04 02:15:00
9:35 PM,62.6,62.6,100,30.10,5.0,North,4.6,-,N/A,,Overcast,10,2014-02-04 02:35:00
9:55 PM,62.6,62.6,100,30.10,2.5,North,3.5,-,N/A,,Overcast,10,2014-02-04 02:55:00
10:15 PM,62.6,62.6,100,30.10,3.0,NNE,3.5,-,N/A,,Overcast,30,2014-02-04 03:15:00
10:35 PM,62.6,62.6,100,30.10,5.0,Calm,Calm,-,N/A,,Overcast,0,2014-02-04 03:35:00
10:55 PM,62.6,62.6,100,30.10,7.0,Calm,Calm,-,N/A,,Overcast,0,2014-02-04 03:55:00
11:15 PM,62.6,62.6,100,30.11,7.0,Calm,Calm,-,N/A,,Overcast,0,2014-02-04 04:15:00
11:35 PM,62.6,62.6,100,30.11,7.0,Calm,Calm,-,N/A,,Overcast,0,2014-02-04 04:35:00
11:55 PM,62.6,62.6,100,30.10,5.0,Calm,Calm,-,N/A,,Overcast,0,2014-02-04 04:55:00